Location: Marcé
(47.5801°N, 0.3280°W)
Time: 06:46:38
(UTC+01:00)

Altair - Pass Details

Date: 09 December 2021
Orbit: 1501 x 1683 km, 47.2° (Epoch: 21 January)

Event Time Altitude Azimuth Distance (km) Brightness Sun altitude
Rises 20:24:14 0° 288° (WNW) 4,711 11.1 -31.7°
Reaches altitude 10° 20:27:22 10° 285° (WNW) 3,706 10.3 -32.3°
Maximum altitude 20:36:24 59° 209° (SSW) 1,703 7.7 -33.8°
Enters shadow 20:38:19 51° 167° (SSE) 1,838 7.7 -34.1°
Drops below altitude 10° 20:45:18 10° 133° (SE) 3,646 - -35.3°
Sets 20:48:21 0° 129° (SE) 4,630 - -35.8°
